Location: Chacón
(10.5789°N, 66.9317°W)
Time: 23:23:38
(UTC+00:00)

Cosmos 1339 Rocket - Pass Details

Date: 22 August 2024
Orbit: 941 x 1006 km, 82.9° (Epoch: 12 September)

Event Time Altitude Azimuth Distance (km) Brightness Sun altitude
Rises 23:19:19 0° 319° (NW) 3,617 8.5 -9.7°
Reaches altitude 10° 23:23:57 10° 287° (WNW) 2,687 8.4 -10.8°
Maximum altitude 23:25:41 11° 270° (W) 2,603 8.1 -11.2°
Drops below altitude 10° 23:27:26 10° 253° (WSW) 2,700 7.8 -11.6°
Sets 23:32:10 0° 221° (SW) 3,666 7.9 -12.7°
